SCP
0 0 0 0 0 0 0 0 0 0 0 0 0 0 0 0 0 0 0 0 0 0 0 0 0 0 0 0 0 0 0 0 0 0 0 0 0 0 0 0 0 0 0 0 0 0 0 0 0 0 0 0 0 -0
0 0 0 0 0 0 0 0 0 0 0 0 0 0 0 0 0 0 0 0 0 0 0 0 0 0 0 0 0 0 0 0 0 0 0 0 0 0 0 0 0 0 0 0 0 0 0 0 0 0 0 0 -0 0
0 0 0 0 0 0 0 0 0 0 0 0 0 0 0 0 0 0 0 0 0 0 0 0 0 0 0 0 0 0 0 0 0 0 0 0 0 0 0 0 0 0 0 0 0 0 0 0 0 0 0 0 0 0
0 0 0 0 0 0 0 0 0 0 0 0 0 0 0 0 0 0 0 0 0 0 0 0 0 0 0 0 0 0 0 0 0 0 0 0 0 0 0 0 0 0 0 0 0 0 -0 0 0 0 0 0 0 0
0 0 0 0 0 0 0 0 0 0 0 0 0 0 0 0 0 0 0 0 0 0 0 0 -0 0 0 0 0 0 0 0 0 0 0 0 0 0 0 0 0 0 0 0 0 0 0 0 0 0 0 0 0 -0
0 0 0 0 0 0 0 0 0 0 0 0 0 0 0 0 0 0 0 0 0 0 0 0 -0 -0 0 0 0 0 0 0 0 0 0 0 0 0 0 0 0 0 0 0 0 0 0 0 0 0 -0 -0 0 -0
0 0 0 0 0 0 0 0 0 0 0 0 0 0 0 0 0 0 0 0 0 0 0 0 0 -0 0 0 0 0 0 0 0 0 0 0 0 0 0 0 0 0 0 0 0 0 0 0 0 0 -0 -0 0 0
0 0 0 0 0 0 0 0 0 0 0 0 0 0 0 0 0 0 0 0 0 0 0 0 0 0 0 0 0 0 0 0 0 0 0 0 0 0 0 0 0 0 0 0 0 0 0 0 0 -0 0 0 -0 -0
0 0 0 0 0 0 0 0 0 0 0 0 0 0 0 0 0 0 0 0 0 0 0 0 0 0 0 0 0 0 0 -0 0 0 0 0 0 0 -0 0 0 0 0 0 0 0 0 0 0 -0 -0 0 -0 -0
0 0 0 0 0 0 0 0 0 0 0 0 0 0 0 0 0 0 0 0 0 0 0 0 0 0 0 0 0 0 0 -0 0 -0 0 0 0 -0 0 0 0 0 0 0 0 -0 -0 -0 -0 -0 -0 -0 -0 -0
0 0 0 0 0 0 0 0 0 0 0 0 0 0 0 0 0 0 0 0 0 0 0 0 0 0 0 0 0 0 -0 -0 0 -0 -0 0 -0 0 -0 -0 0 0 0 0 0 0 0 0 -0 -0 -0 -0 -0 0
0 0 0 0 0 0 0 0 0 0 0 0 0 0 0 0 0 0 0 0 0 0 0 0 0 0 0 0 -0 -0 -0 -0 -0 -0 -0 0 0 -0 -0 -0 -0 0 0 0 -0 0 0 -0 0 0 0 0 0 0
0 0 0 0 0 0 0 0 0 0 0 0 0 0 0 0 0 0 0 0 0 0 0 0 0 0 0 -0 -0 -0 -0 -0 -0 0 0 0 -0 -0 -0 -0 0 0 0 -0 0 -0 0 0 0 0 0 0 0 0
0 0 0 0 0 0 0 0 0 0 0 0 0 0 0 0 0 0 0 0 0 0 0 0 0 0 -0 -0 -0 -0 -0 -0 -0 0 0 0 -0 -0 -0 -0 0 0 0 0 0 -0 -0 -0 -0 0 0 0 0 0
0 0 0 0 -0 -0 0 0 0 0 0 0 0 0 0 0 0 0 0 0 0 0 0 0 -0 -0 -0 -0 -0 -0 -0 -0 -0 0 0 -0 -0 -0 -0 -0 -0 0 0 0 -0 -0 -0 -0 -0 0 0 0 -0 0
0 0 0 -0 -0 0 0 0 0 0 0 0 0 0 0 0 0 0 0 0 0 0 0 -0 0 -0 0 -0 -0 -0 -0 -0 0 0 -0 -0 -0 -0 -0 -0 -0 0 0 0 -0 -0 -0 0 -0 0 0 0 0 0
0 0 -0 -0 -0 0 0 0 0 0 0 0 0 0 0 0 0 0 0 0 0 0 0 0 0 0 0 0 0 -0 -0 0 0 0 0 -0 -0 -0 -0 -0 -0 -0 0 0 -0 -0 -0 0 -0 -0 0 0 0 0
0 0 -0 -0 0 0 0 0 0 0 0 0 0 0 0 0 0 0 0 0 0 0 0 0 0 0 0 0 0 0 0 0 0 0 0 0 -0 -0 -0 -0 -0 -0 -0 0 0 -0 -0 0 0 0 -0 0 0 0
0 0 -0 -0 0 0 0 0 0 0 0 0 0 0 0 0 0 0 0 0 0 0 0 0 0 0 0 0 0 0 0 0 0 0 0 0 0 -0 -0 -0 -0 -0 -0 -0 -0 0 -0 -0 0 -0 0 -0 0 0
-0 -0 -0 -0 0 0 0 0 0 0 0 0 0 0 0 0 0 0 0 0 0 0 0 0 0 0 0 -0 -0 -0 -0 0 0 0 0 0 0 0 0 -0 -0 -0 -0 -0 -0 -0 -0 -0 -0 -0 -0 -0 0 0
0 0 -0 0 0 0 0 0 0 0 0 0 0 0 0 0 0 0 0 0 0 0 0 -0 -0 0 0 0 0 0 0 0 -0 0 0 0 0 0 0 0 0 0 -0 -0 -0 -0 -0 0 -0 -0 -0 -0 -0 -0
0 0 0 0 0 0 0 0 0 0 0 0 0 0 0 0 0 0 0 0 0 0 0 0 0 0 0 0 0 0 0 0 0 0 0 0 0 0 0 0 0 0 0 -0 -0 -0 -0 -0 -0 0 -0 -0 -0 -0
0 0 0 0 0 0 0 0 0 0 0 0 0 0 0 0 0 0 0 0 0 0 0 0 0 0 0 0 0 0 0 0 0 0 0 0 0 0 0 0 0 0 0 0 0 0 -0 -0 -0 -0 0 -0 -0 0
0 0 0 0 0 0 0 0 0 0 0 0 0 0 0 0 0 0 0 0 0 0 0 0 0 0 0 0 0 0 -0 0 0 0 0 0 0 0 0 0 0 0 0 0 0 0 0 -0 -0 -0 -0 0 0 -0
0 0 0 0 0 0 0 0 0 0 0 0 0 0 0 0 0 0 0 0 0 0 0 0 0 0 0 0 0 -0 -0 -0 -0 -0 -0 -0 -0 -0 0 0 0 0 0 0 0 0 0 0 0 -0 -0 -0 -0 -0
0 0 0 0 0 0 0 0 0 0 0 0 0 0 0 0 0 0 0 0 0 0 0 0 0 0 0 0 0 0 0 0 0 0 0 -0 -0 -0 0 0 0 0 0 0 0 0 0 0 0 0 0 -0 -0 -0
0 0 0 0 0 0 0 0 0 0 0 0 0 0 0 0 0 0 0 0 0 0 0 0 0 0 0 0 0 0 0 0 0 0 0 0 -0 -0 -0 -0 0 0 0 0 0 0 0 0 0 0 0 0 -0 -0
0 0 0 0 0 0 0 0 0 0 0 0 0 0 0 0 0 0 0 0 0 0 0 0 0 0 0 0 0 0 0 0 0 0 0 0 0 0 0 -0 -0 0 0 0 0 0 0 0 0 0 0 0 0 0
0 0 0 0 0 0 0 0 0 0 0 0 0 0 0 0 0 0 0 0 0 0 0 0 0 0 0 0 0 0 0 0 0 0 0 0 0 0 0 -0 -0 0 0 0 0 0 0 0 0 0 0 0 0 0
0 0 0 0 0 0 0 0 0 0 0 0 0 0 0 0 0 0 0 0 0 0 0 0 0 0 0 0 0 0 0 0 0 0 0 0 0 0 0 -0 -0 -0 -0 -0 0 0 0 0 0 0 0 0 0 0
0 0 0 0 0 0 0 0 0 0 0 0 0 0 0 0 0 0 0 0 0 0 0 0 0 0 0 0 0 0 0 0 0 0 0 -0 0 0 0 0 -0 -0 -0 -0 -0 0 0 0 0 0 0 0 0 0
0 0 0 0 0 0 0 0 0 0 0 0 0 0 0 0 0 0 0 0 0 0 0 0 0 0 0 0 0 0 0 -0 -0 -0 0 -0 -0 -0 -0 -0 0 -0 0 0 -0 -0 0 0 0 0 0 0 0 0
0 0 0 0 0 0 0 0 0 0 0 0 0 0 0 0 0 0 0 0 0 0 0 0 0 0 0 0 0 0 0 0 0 0 0 0 0 0 0 0 0 0 0 0 0 0 0 0 0 0 0 0 0 0
Wind_Speed_500mb
61 56 54 50 43 45 41 39 35 32 34 32 28 31 34 39 37 28 20 17 14 13 43 22 17 24 19 11 6 10 15 3 7 7 3 6 5 7 7 8 8 5 5 6 3 6 13 8 6 7 13 27 44 57
67 58 58 53 46 44 43 39 36 31 32 32 30 29 35 38 33 28 23 18 22 25 41 65 50 38 38 50 30 13 7 4 5 4 3 1 5 7 4 7 7 4 6 4 10 10 10 16 38 56 56 53 61 52
71 70 63 60 53 43 41 39 37 31 29 32 29 29 35 38 30 27 28 25 24 21 37 15 1 11 33 26 29 19 12 15 11 13 4 4 7 3 5 8 5 8 5 7 10 9 16 41 60 59 56 66 71 67
73 72 61 67 63 52 40 40 38 33 29 30 27 30 35 35 30 28 25 27 19 13 10 15 26 12 7 12 24 42 42 16 8 8 10 6 4 11 6 9 7 13 8 8 12 21 34 27 45 64 64 70 64 56
77 66 61 69 69 54 46 50 37 33 28 29 25 30 35 33 29 26 21 7 12 10 8 26 32 3 12 24 24 34 49 51 34 8 7 5 5 6 5 4 8 9 11 5 12 39 39 46 72 71 55 47 65 65
81 74 74 77 71 60 54 53 39 33 25 26 27 28 33 29 24 16 5 6 5 3 8 7 17 11 30 30 14 19 36 43 24 13 9 10 10 8 5 5 15 23 25 44 23 47 58 63 52 43 61 68 72 70
74 81 73 77 70 72 61 51 46 27 25 29 28 26 30 24 20 9 7 4 11 8 6 11 14 11 28 25 16 4 16 18 19 10 10 9 10 16 4 6 17 54 60 58 56 38 33 27 45 64 68 68 65 50
61 82 65 67 68 70 64 49 41 21 30 32 27 24 24 24 21 4 9 7 13 13 5 5 9 19 20 13 12 6 7 15 16 9 6 5 1 4 5 20 60 72 59 42 35 38 33 43 57 68 68 45 60 49
53 76 63 60 65 68 61 41 39 27 31 33 20 19 16 10 9 10 5 11 8 5 5 3 5 7 19 12 11 8 5 3 5 4 4 2 2 4 17 40 59 57 45 55 39 39 40 48 55 71 63 55 52 53
53 70 63 56 63 63 49 33 38 28 32 16 9 8 7 8 12 5 4 6 11 9 8 7 7 8 9 7 8 9 5 4 3 6 10 3 1 17 50 64 56 61 47 39 44 42 47 49 57 75 62 54 52 47
48 65 65 52 57 51 36 36 41 29 20 11 12 9 13 15 7 6 6 8 9 5 10 11 15 9 8 4 5 6 5 5 4 3 3 3 4 32 72 77 67 50 48 47 39 38 39 48 69 73 63 57 52 44
42 59 60 46 50 39 38 39 28 29 18 14 8 11 14 10 6 5 5 6 6 5 9 9 13 17 10 8 7 6 5 4 3 11 2 5 11 63 76 81 70 60 50 44 43 44 46 47 67 72 57 51 44 41
47 61 54 50 42 35 40 33 26 23 19 14 9 9 8 8 4 8 9 5 5 9 11 8 6 6 4 5 7 3 5 4 14 7 6 3 45 73 85 79 73 57 51 46 49 46 44 49 62 54 52 52 43 43
47 63 55 49 33 43 40 28 25 31 16 10 11 7 9 7 7 8 7 8 5 9 13 14 8 3 5 3 3 5 6 5 6 7 7 10 61 77 77 71 67 65 58 50 47 48 48 52 67 66 60 55 47 45
48 61 50 40 37 38 30 27 38 30 13 9 9 7 10 11 5 7 9 5 2 8 9 1 4 3 4 4 5 5 7 7 6 6 7 49 69 72 72 70 67 57 55 52 48 49 51 57 65 65 63 56 54 51
55 52 51 43 40 35 30 37 33 23 7 8 8 5 7 5 2 8 9 3 4 8 6 6 4 3 5 4 8 7 6 5 6 10 43 57 63 70 69 63 54 47 48 37 43 47 53 59 64 65 61 55 53 52
67 48 55 40 41 33 42 35 23 12 10 7 9 17 8 5 8 8 5 2 7 2 4 6 6 3 4 7 4 3 4 4 25 39 46 54 60 64 61 55 50 45 39 33 39 44 50 52 58 66 69 60 54 52
61 42 47 46 43 54 41 16 11 10 10 16 7 14 18 7 9 8 2 4 2 7 7 5 8 5 4 5 2 3 7 21 28 37 40 51 54 54 53 48 44 47 37 28 33 38 44 52 60 64 62 61 61 59
36 42 48 49 56 33 15 16 10 8 17 7 13 13 12 16 13 8 5 9 13 18 19 7 7 4 4 6 4 7 14 20 29 37 38 43 50 51 54 52 48 44 37 30 28 35 39 44 48 52 56 58 64 64
29 42 52 65 46 12 10 9 13 7 10 11 12 20 17 15 18 15 14 13 13 9 10 5 4 8 9 7 1 5 13 21 26 27 34 42 46 45 51 53 53 47 41 35 25 25 30 33 40 45 50 54 60 61
59 64 65 44 19 5 8 9 12 9 7 13 22 24 15 25 13 7 9 9 8 6 5 7 15 14 11 4 5 10 14 20 20 21 31 41 39 40 46 50 53 50 48 46 39 23 26 30 31 34 41 48 50 52
62 60 51 27 6 2 5 10 5 8 8 11 26 16 14 11 12 8 12 9 7 7 11 16 13 12 11 4 7 9 13 17 15 14 25 31 39 44 44 45 47 51 49 46 40 35 27 27 21 27 29 34 41 43
66 51 30 6 6 8 5 10 8 9 7 15 16 10 6 8 12 18 8 6 7 20 20 19 13 9 3 2 3 7 11 17 16 11 24 29 32 35 36 36 37 43 44 44 40 35 25 17 18 19 20 23 29 35
49 15 11 12 13 9 7 7 9 7 9 8 8 8 8 13 19 5 5 10 21 24 22 19 16 13 10 6 1 6 13 19 11 10 17 25 33 33 37 37 34 35 37 34 35 35 32 18 18 16 16 17 19 23
11 10 9 8 11 7 6 6 6 5 7 7 8 6 7 14 5 5 7 17 38 34 27 23 21 15 12 7 2 6 17 18 10 12 21 28 30 31 36 40 39 38 38 37 44 40 29 28 21 18 17 19 18 14
5 10 13 15 9 8 8 8 11 10 7 6 5 15 10 6 7 7 7 36 51 43 37 34 28 22 15 6 1 9 18 18 10 12 18 26 32 36 40 46 50 47 45 35 38 42 38 25 22 23 17 14 18 12
3 7 7 11 7 5 4 6 6 7 7 9 8 7 7 7 9 7 12 40 51 41 36 32 26 21 14 7 1 8 15 17 15 11 15 20 23 31 35 41 44 44 44 41 34 34 39 37 28 18 14 11 16 13
6 3 5 6 8 9 3 4 8 10 8 12 21 9 15 10 8 17 18 38 43 39 37 28 22 17 13 9 3 6 12 16 15 9 6 13 19 23 29 34 37 35 34 36 39 37 34 38 36 30 21 11 11 11
5 5 9 5 8 9 9 6 7 7 9 19 8 5 8 7 18 20 36 46 37 40 41 38 29 22 18 14 7 4 11 15 16 14 14 19 24 30 35 38 39 39 37 34 33 36 33 30 36 34 28 17 11 14
6 15 8 7 6 8 6 10 9 16 15 21 22 19 15 16 18 32 45 43 46 44 36 28 22 19 15 12 7 2 11 19 24 28 31 32 33 33 35 37 39 40 40 39 37 35 32 28 21 22 22 16 10 15
6 14 11 10 6 9 15 16 25 32 21 16 17 29 25 21 32 36 39 39 39 38 35 30 25 19 16 12 8 1 9 15 20 26 31 31 31 30 31 34 37 37 38 38 38 37 38 37 34 31 28 25 17 8
13 12 3 4 2 15 27 6 9 9 10 10 9 12 25 15 10 30 38 37 38 39 28 23 21 20 16 14 9 1 6 11 16 22 27 31 33 33 33 33 33 34 35 35 35 35 36 37 36 36 32 33 29 19
11 6 7 5 9 12 10 10 7 8 9 8 9 18 10 10 8 15 37 41 32 29 28 21 17 14 11 7 3 2 7 13 20 25 28 30 31 31 30 30 30 31 31 33 33 32 33 35 36 35 34 33 33 27
Wind_Direction_500mb
263 260 265 265 271 276 279 283 290 299 304 307 313 322 334 331 332 337 327 302 289 262 282 261 247 244 251 222 188 302 336 298 340 26 348 344 326 353 316 295 295 217 184 240 226 244 277 148 117 204 235 299 313 306
251 255 255 262 257 272 275 279 283 293 298 303 303 321 328 327 329 323 319 307 293 275 276 297 294 281 268 255 252 241 242 291 261 54 355 8 329 346 315 284 324 334 189 249 204 232 257 237 267 286 293 296 298 290
254 242 247 255 255 258 268 274 278 284 292 296 297 315 321 320 330 317 306 314 312 295 307 307 303 311 307 273 251 216 233 212 213 215 259 228 264 229 273 256 287 289 202 231 339 266 272 294 300 298 296 292 295 297
256 246 238 248 252 242 260 264 275 279 285 289 297 311 316 318 326 313 297 300 290 283 292 284 321 320 300 322 253 243 236 205 246 245 237 249 232 207 251 249 250 246 325 261 254 280 310 285 297 295 293 301 300 307
247 243 235 245 249 242 247 247 263 273 278 279 296 307 313 316 319 316 311 295 240 240 281 290 313 15 334 326 297 249 239 239 248 266 224 251 232 238 232 289 248 205 218 222 277 299 287 280 297 307 303 309 314 311
243 239 229 236 244 236 242 245 240 268 274 276 287 302 307 309 312 330 233 184 71 234 309 292 311 267 347 351 329 263 232 229 211 211 233 228 214 193 254 250 252 272 304 293 269 289 290 296 311 321 316 316 315 311
245 241 248 242 240 235 238 243 231 258 271 269 281 298 297 296 292 275 246 224 268 312 301 294 302 300 339 344 337 347 196 200 209 217 244 237 220 200 250 258 326 319 312 304 310 320 314 318 324 330 323 316 312 303
247 239 245 245 242 246 243 240 226 239 264 270 277 283 287 284 288 229 157 214 247 258 287 292 282 318 346 327 322 320 210 205 210 240 248 240 206 238 283 316 319 315 317 319 335 338 331 326 334 328 326 306 323 317
246 237 241 244 239 240 241 234 228 234 263 272 271 287 282 229 192 166 220 249 223 225 288 254 287 290 336 320 302 288 299 222 228 247 235 170 74 30 323 321 313 318 322 309 327 337 333 341 339 333 330 328 328 324
241 233 236 242 232 237 240 229 222 233 267 254 264 234 218 178 157 166 155 166 190 208 226 256 254 274 319 310 295 312 306 245 256 232 160 187 57 328 338 333 329 331 334 334 322 330 335 337 339 337 336 333 334 334
228 229 229 236 235 242 224 217 222 244 243 173 207 210 182 170 184 195 198 216 174 221 217 239 238 269 279 259 278 277 289 278 263 49 287 99 23 342 337 338 349 351 341 338 320 323 335 346 347 339 334 339 341 344
224 226 220 230 229 227 212 216 221 239 193 182 178 164 169 177 179 193 198 208 194 237 204 216 251 229 272 251 262 269 279 255 266 333 266 46 351 337 337 339 354 352 339 334 330 332 334 351 352 346 340 351 349 348
220 219 216 218 226 201 212 204 234 217 160 171 175 164 171 172 159 205 188 201 211 203 219 234 290 258 249 252 297 293 280 348 313 22 26 74 337 334 336 341 349 351 348 336 339 343 339 351 356 360 356 5 11 7
210 214 211 215 211 202 205 214 210 153 169 176 165 173 200 185 232 195 178 184 204 245 277 299 274 334 345 324 358 298 355 321 40 24 354 342 331 326 333 340 348 353 352 2 355 353 352 357 1 4 13 15 16 21
206 203 204 201 198 200 198 210 164 173 171 181 181 210 207 224 234 171 167 168 203 300 314 151 80 58 30 339 15 356 16 40 36 353 310 321 324 330 336 344 348 358 357 4 2 2 2 4 6 7 14 19 19 26
195 182 185 192 192 190 199 166 162 170 193 202 219 246 206 128 108 166 183 198 352 352 98 75 85 71 33 41 49 26 75 27 328 323 318 325 330 336 347 349 355 5 358 358 5 12 12 13 10 14 16 18 30 29
175 174 189 184 181 189 159 150 153 194 194 210 237 220 200 177 185 168 180 129 342 321 102 100 71 69 27 51 66 33 67 8 328 325 334 337 336 340 352 354 1 16 10 10 14 17 17 19 21 22 19 17 30 37
180 180 184 179 176 144 151 153 171 186 226 222 219 198 194 187 158 151 186 284 227 118 113 118 119 76 76 106 96 78 14 345 338 338 335 345 347 353 4 4 5 18 17 19 23 20 20 21 26 26 23 23 28 31
188 178 179 179 158 128 148 188 190 220 220 201 211 154 140 135 120 126 115 92 128 117 114 84 90 113 125 104 79 14 359 351 337 337 340 342 359 3 9 13 19 21 20 12 21 25 20 22 25 26 25 24 28 29
164 166 170 144 141 132 149 172 193 223 198 192 181 160 146 138 131 110 128 138 123 84 68 70 131 126 130 142 333 359 1 344 347 336 347 350 3 9 17 19 19 19 20 23 35 30 28 23 21 20 22 25 28 28
150 148 142 153 142 136 177 173 189 208 178 175 156 138 123 139 147 154 111 111 78 68 102 131 138 141 139 150 43 11 351 342 353 357 355 355 1 10 17 20 21 21 22 21 23 16 14 9 12 10 14 20 27 32
144 152 162 161 125 235 242 200 195 170 174 155 147 139 137 156 154 147 129 72 92 129 133 143 146 149 151 103 12 340 357 352 351 353 9 5 8 7 9 13 11 15 22 21 19 16 15 356 2 5 4 15 16 24
152 152 143 119 197 215 256 186 189 185 146 172 147 113 130 127 147 143 84 106 132 149 147 142 150 164 141 62 13 3 354 352 8 3 6 11 13 11 8 8 8 7 11 15 20 21 22 357 351 2 8 12 11 13
128 132 163 191 204 210 192 195 197 184 146 150 152 122 132 134 152 101 135 165 162 157 161 158 158 153 162 136 50 346 3 359 2 354 355 0 6 12 12 11 11 11 11 9 7 15 20 26 348 351 352 357 5 6
122 181 188 207 197 191 201 177 188 181 177 170 132 132 151 148 107 163 182 185 171 170 167 163 163 167 154 138 48 349 348 355 9 356 355 358 2 6 13 17 20 17 13 18 16 14 9 17 21 12 357 345 342 353
166 192 182 192 175 189 203 174 188 179 159 144 121 126 139 112 153 210 213 184 177 174 172 170 168 167 167 171 46 4 8 10 4 342 352 358 2 6 8 8 9 14 16 14 5 6 10 3 1 4 3 343 331 316
192 235 202 208 206 222 239 225 167 140 171 161 156 135 136 153 214 208 175 176 178 175 170 169 173 180 183 170 87 6 6 7 4 354 7 9 3 5 5 10 10 7 4 3 2 357 359 1 353 345 347 335 336 298
239 221 189 180 208 221 267 207 169 180 190 162 142 161 171 185 196 166 175 177 175 171 167 165 168 180 181 179 193 1 1 10 6 358 291 347 357 1 6 9 10 10 7 1 358 360 2 358 355 352 344 337 332 268
228 185 190 243 222 216 224 218 219 175 143 163 115 120 127 116 157 166 163 167 172 165 162 169 173 182 187 190 204 333 15 30 34 43 33 16 8 6 7 5 4 5 8 10 5 357 356 352 352 349 349 337 272 277
234 191 201 234 216 213 233 214 169 151 139 138 125 115 105 117 148 157 162 168 168 168 173 179 181 189 193 197 192 53 32 35 36 34 29 21 12 5 1 360 2 3 4 5 5 3 358 355 348 353 356 346 304 250
223 201 215 243 271 215 213 169 144 132 121 100 118 135 124 126 144 160 170 172 174 178 180 180 184 192 201 192 195 42 37 31 29 25 21 14 6 3 2 1 2 3 3 3 4 4 4 3 2 0 356 1 0 343
211 222 199 276 240 158 139 141 119 91 100 98 98 134 131 116 116 166 182 183 185 186 192 197 192 187 182 171 190 219 14 20 16 12 10 7 5 2 359 358 359 1 4 6 5 7 8 9 8 6 1 2 0 352
207 227 218 181 140 185 174 122 93 95 101 104 122 134 97 107 127 164 175 177 190 199 190 186 186 184 170 165 170 37 11 3 357 357 360 1 360 358 356 356 359 1 2 5 7 9 13 16 16 16 14 11 9 13
Wind_Speed_850mb
61 56 54 50 43 45 41 39 35 32 34 32 28 31 34 39 37 28 20 17 14 13 43 22 17 24 19 11 6 10 15 3 7 7 3 6 5 7 7 8 8 5 5 6 3 6 13 8 6 7 13 27 44 57
67 58 58 53 46 44 43 39 36 31 32 32 30 29 35 38 33 28 23 18 22 25 41 65 50 38 38 50 30 13 7 4 5 4 3 1 5 7 4 7 7 4 6 4 10 10 10 16 38 56 56 53 61 52
71 70 63 60 53 43 41 39 37 31 29 32 29 29 35 38 30 27 28 25 24 21 37 15 1 11 33 26 29 19 12 15 11 13 4 4 7 3 5 8 5 8 5 7 10 9 16 41 60 59 56 66 71 67
73 72 61 67 63 52 40 40 38 33 29 30 27 30 35 35 30 28 25 27 19 13 10 15 26 12 7 12 24 42 42 16 8 8 10 6 4 11 6 9 7 13 8 8 12 21 34 27 45 64 64 70 64 56
77 66 61 69 69 54 46 50 37 33 28 29 25 30 35 33 29 26 21 7 12 10 8 26 32 3 12 24 24 34 49 51 34 8 7 5 5 6 5 4 8 9 11 5 12 39 39 46 72 71 55 47 65 65
81 74 74 77 71 60 54 53 39 33 25 26 27 28 33 29 24 16 5 6 5 3 8 7 17 11 30 30 14 19 36 43 24 13 9 10 10 8 5 5 15 23 25 44 23 47 58 63 52 43 61 68 72 70
74 81 73 77 70 72 61 51 46 27 25 29 28 26 30 24 20 9 7 4 11 8 6 11 14 11 28 25 16 4 16 18 19 10 10 9 10 16 4 6 17 54 60 58 56 38 33 27 45 64 68 68 65 50
61 82 65 67 68 70 64 49 41 21 30 32 27 24 24 24 21 4 9 7 13 13 5 5 9 19 20 13 12 6 7 15 16 9 6 5 1 4 5 20 60 72 59 42 35 38 33 43 57 68 68 45 60 49
53 76 63 60 65 68 61 41 39 27 31 33 20 19 16 10 9 10 5 11 8 5 5 3 5 7 19 12 11 8 5 3 5 4 4 2 2 4 17 40 59 57 45 55 39 39 40 48 55 71 63 55 52 53
53 70 63 56 63 63 49 33 38 28 32 16 9 8 7 8 12 5 4 6 11 9 8 7 7 8 9 7 8 9 5 4 3 6 10 3 1 17 50 64 56 61 47 39 44 42 47 49 57 75 62 54 52 47
48 65 65 52 57 51 36 36 41 29 20 11 12 9 13 15 7 6 6 8 9 5 10 11 15 9 8 4 5 6 5 5 4 3 3 3 4 32 72 77 67 50 48 47 39 38 39 48 69 73 63 57 52 44
42 59 60 46 50 39 38 39 28 29 18 14 8 11 14 10 6 5 5 6 6 5 9 9 13 17 10 8 7 6 5 4 3 11 2 5 11 63 76 81 70 60 50 44 43 44 46 47 67 72 57 51 44 41
47 61 54 50 42 35 40 33 26 23 19 14 9 9 8 8 4 8 9 5 5 9 11 8 6 6 4 5 7 3 5 4 14 7 6 3 45 73 85 79 73 57 51 46 49 46 44 49 62 54 52 52 43 43
47 63 55 49 33 43 40 28 25 31 16 10 11 7 9 7 7 8 7 8 5 9 13 14 8 3 5 3 3 5 6 5 6 7 7 10 61 77 77 71 67 65 58 50 47 48 48 52 67 66 60 55 47 45
48 61 50 40 37 38 30 27 38 30 13 9 9 7 10 11 5 7 9 5 2 8 9 1 4 3 4 4 5 5 7 7 6 6 7 49 69 72 72 70 67 57 55 52 48 49 51 57 65 65 63 56 54 51
55 52 51 43 40 35 30 37 33 23 7 8 8 5 7 5 2 8 9 3 4 8 6 6 4 3 5 4 8 7 6 5 6 10 43 57 63 70 69 63 54 47 48 37 43 47 53 59 64 65 61 55 53 52
67 48 55 40 41 33 42 35 23 12 10 7 9 17 8 5 8 8 5 2 7 2 4 6 6 3 4 7 4 3 4 4 25 39 46 54 60 64 61 55 50 45 39 33 39 44 50 52 58 66 69 60 54 52
61 42 47 46 43 54 41 16 11 10 10 16 7 14 18 7 9 8 2 4 2 7 7 5 8 5 4 5 2 3 7 21 28 37 40 51 54 54 53 48 44 47 37 28 33 38 44 52 60 64 62 61 61 59
36 42 48 49 56 33 15 16 10 8 17 7 13 13 12 16 13 8 5 9 13 18 19 7 7 4 4 6 4 7 14 20 29 37 38 43 50 51 54 52 48 44 37 30 28 35 39 44 48 52 56 58 64 64
29 42 52 65 46 12 10 9 13 7 10 11 12 20 17 15 18 15 14 13 13 9 10 5 4 8 9 7 1 5 13 21 26 27 34 42 46 45 51 53 53 47 41 35 25 25 30 33 40 45 50 54 60 61
59 64 65 44 19 5 8 9 12 9 7 13 22 24 15 25 13 7 9 9 8 6 5 7 15 14 11 4 5 10 14 20 20 21 31 41 39 40 46 50 53 50 48 46 39 23 26 30 31 34 41 48 50 52
62 60 51 27 6 2 5 10 5 8 8 11 26 16 14 11 12 8 12 9 7 7 11 16 13 12 11 4 7 9 13 17 15 14 25 31 39 44 44 45 47 51 49 46 40 35 27 27 21 27 29 34 41 43
66 51 30 6 6 8 5 10 8 9 7 15 16 10 6 8 12 18 8 6 7 20 20 19 13 9 3 2 3 7 11 17 16 11 24 29 32 35 36 36 37 43 44 44 40 35 25 17 18 19 20 23 29 35
49 15 11 12 13 9 7 7 9 7 9 8 8 8 8 13 19 5 5 10 21 24 22 19 16 13 10 6 1 6 13 19 11 10 17 25 33 33 37 37 34 35 37 34 35 35 32 18 18 16 16 17 19 23
11 10 9 8 11 7 6 6 6 5 7 7 8 6 7 14 5 5 7 17 38 34 27 23 21 15 12 7 2 6 17 18 10 12 21 28 30 31 36 40 39 38 38 37 44 40 29 28 21 18 17 19 18 14
5 10 13 15 9 8 8 8 11 10 7 6 5 15 10 6 7 7 7 36 51 43 37 34 28 22 15 6 1 9 18 18 10 12 18 26 32 36 40 46 50 47 45 35 38 42 38 25 22 23 17 14 18 12
3 7 7 11 7 5 4 6 6 7 7 9 8 7 7 7 9 7 12 40 51 41 36 32 26 21 14 7 1 8 15 17 15 11 15 20 23 31 35 41 44 44 44 41 34 34 39 37 28 18 14 11 16 13
6 3 5 6 8 9 3 4 8 10 8 12 21 9 15 10 8 17 18 38 43 39 37 28 22 17 13 9 3 6 12 16 15 9 6 13 19 23 29 34 37 35 34 36 39 37 34 38 36 30 21 11 11 11
5 5 9 5 8 9 9 6 7 7 9 19 8 5 8 7 18 20 36 46 37 40 41 38 29 22 18 14 7 4 11 15 16 14 14 19 24 30 35 38 39 39 37 34 33 36 33 30 36 34 28 17 11 14
6 15 8 7 6 8 6 10 9 16 15 21 22 19 15 16 18 32 45 43 46 44 36 28 22 19 15 12 7 2 11 19 24 28 31 32 33 33 35 37 39 40 40 39 37 35 32 28 21 22 22 16 10 15
6 14 11 10 6 9 15 16 25 32 21 16 17 29 25 21 32 36 39 39 39 38 35 30 25 19 16 12 8 1 9 15 20 26 31 31 31 30 31 34 37 37 38 38 38 37 38 37 34 31 28 25 17 8
13 12 3 4 2 15 27 6 9 9 10 10 9 12 25 15 10 30 38 37 38 39 28 23 21 20 16 14 9 1 6 11 16 22 27 31 33 33 33 33 33 34 35 35 35 35 36 37 36 36 32 33 29 19
11 6 7 5 9 12 10 10 7 8 9 8 9 18 10 10 8 15 37 41 32 29 28 21 17 14 11 7 3 2 7 13 20 25 28 30 31 31 30 30 30 31 31 33 33 32 33 35 36 35 34 33 33 27
Wind_Direction_850mb
263 260 265 265 271 276 279 283 290 299 304 307 313 322 334 331 332 337 327 302 289 262 282 261 247 244 251 222 188 302 336 298 340 26 348 344 326 353 316 295 295 217 184 240 226 244 277 148 117 204 235 299 313 306
251 255 255 262 257 272 275 279 283 293 298 303 303 321 328 327 329 323 319 307 293 275 276 297 294 281 268 255 252 241 242 291 261 54 355 8 329 346 315 284 324 334 189 249 204 232 257 237 267 286 293 296 298 290
254 242 247 255 255 258 268 274 278 284 292 296 297 315 321 320 330 317 306 314 312 295 307 307 303 311 307 273 251 216 233 212 213 215 259 228 264 229 273 256 287 289 202 231 339 266 272 294 300 298 296 292 295 297
256 246 238 248 252 242 260 264 275 279 285 289 297 311 316 318 326 313 297 300 290 283 292 284 321 320 300 322 253 243 236 205 246 245 237 249 232 207 251 249 250 246 325 261 254 280 310 285 297 295 293 301 300 307
247 243 235 245 249 242 247 247 263 273 278 279 296 307 313 316 319 316 311 295 240 240 281 290 313 15 334 326 297 249 239 239 248 266 224 251 232 238 232 289 248 205 218 222 277 299 287 280 297 307 303 309 314 311
243 239 229 236 244 236 242 245 240 268 274 276 287 302 307 309 312 330 233 184 71 234 309 292 311 267 347 351 329 263 232 229 211 211 233 228 214 193 254 250 252 272 304 293 269 289 290 296 311 321 316 316 315 311
245 241 248 242 240 235 238 243 231 258 271 269 281 298 297 296 292 275 246 224 268 312 301 294 302 300 339 344 337 347 196 200 209 217 244 237 220 200 250 258 326 319 312 304 310 320 314 318 324 330 323 316 312 303
247 239 245 245 242 246 243 240 226 239 264 270 277 283 287 284 288 229 157 214 247 258 287 292 282 318 346 327 322 320 210 205 210 240 248 240 206 238 283 316 319 315 317 319 335 338 331 326 334 328 326 306 323 317
246 237 241 244 239 240 241 234 228 234 263 272 271 287 282 229 192 166 220 249 223 225 288 254 287 290 336 320 302 288 299 222 228 247 235 170 74 30 323 321 313 318 322 309 327 337 333 341 339 333 330 328 328 324
241 233 236 242 232 237 240 229 222 233 267 254 264 234 218 178 157 166 155 166 190 208 226 256 254 274 319 310 295 312 306 245 256 232 160 187 57 328 338 333 329 331 334 334 322 330 335 337 339 337 336 333 334 334
228 229 229 236 235 242 224 217 222 244 243 173 207 210 182 170 184 195 198 216 174 221 217 239 238 269 279 259 278 277 289 278 263 49 287 99 23 342 337 338 349 351 341 338 320 323 335 346 347 339 334 339 341 344
224 226 220 230 229 227 212 216 221 239 193 182 178 164 169 177 179 193 198 208 194 237 204 216 251 229 272 251 262 269 279 255 266 333 266 46 351 337 337 339 354 352 339 334 330 332 334 351 352 346 340 351 349 348
220 219 216 218 226 201 212 204 234 217 160 171 175 164 171 172 159 205 188 201 211 203 219 234 290 258 249 252 297 293 280 348 313 22 26 74 337 334 336 341 349 351 348 336 339 343 339 351 356 360 356 5 11 7
210 214 211 215 211 202 205 214 210 153 169 176 165 173 200 185 232 195 178 184 204 245 277 299 274 334 345 324 358 298 355 321 40 24 354 342 331 326 333 340 348 353 352 2 355 353 352 357 1 4 13 15 16 21
206 203 204 201 198 200 198 210 164 173 171 181 181 210 207 224 234 171 167 168 203 300 314 151 80 58 30 339 15 356 16 40 36 353 310 321 324 330 336 344 348 358 357 4 2 2 2 4 6 7 14 19 19 26
195 182 185 192 192 190 199 166 162 170 193 202 219 246 206 128 108 166 183 198 352 352 98 75 85 71 33 41 49 26 75 27 328 323 318 325 330 336 347 349 355 5 358 358 5 12 12 13 10 14 16 18 30 29
175 174 189 184 181 189 159 150 153 194 194 210 237 220 200 177 185 168 180 129 342 321 102 100 71 69 27 51 66 33 67 8 328 325 334 337 336 340 352 354 1 16 10 10 14 17 17 19 21 22 19 17 30 37
180 180 184 179 176 144 151 153 171 186 226 222 219 198 194 187 158 151 186 284 227 118 113 118 119 76 76 106 96 78 14 345 338 338 335 345 347 353 4 4 5 18 17 19 23 20 20 21 26 26 23 23 28 31
188 178 179 179 158 128 148 188 190 220 220 201 211 154 140 135 120 126 115 92 128 117 114 84 90 113 125 104 79 14 359 351 337 337 340 342 359 3 9 13 19 21 20 12 21 25 20 22 25 26 25 24 28 29
164 166 170 144 141 132 149 172 193 223 198 192 181 160 146 138 131 110 128 138 123 84 68 70 131 126 130 142 333 359 1 344 347 336 347 350 3 9 17 19 19 19 20 23 35 30 28 23 21 20 22 25 28 28
150 148 142 153 142 136 177 173 189 208 178 175 156 138 123 139 147 154 111 111 78 68 102 131 138 141 139 150 43 11 351 342 353 357 355 355 1 10 17 20 21 21 22 21 23 16 14 9 12 10 14 20 27 32
144 152 162 161 125 235 242 200 195 170 174 155 147 139 137 156 154 147 129 72 92 129 133 143 146 149 151 103 12 340 357 352 351 353 9 5 8 7 9 13 11 15 22 21 19 16 15 356 2 5 4 15 16 24
152 152 143 119 197 215 256 186 189 185 146 172 147 113 130 127 147 143 84 106 132 149 147 142 150 164 141 62 13 3 354 352 8 3 6 11 13 11 8 8 8 7 11 15 20 21 22 357 351 2 8 12 11 13
128 132 163 191 204 210 192 195 197 184 146 150 152 122 132 134 152 101 135 165 162 157 161 158 158 153 162 136 50 346 3 359 2 354 355 0 6 12 12 11 11 11 11 9 7 15 20 26 348 351 352 357 5 6
122 181 188 207 197 191 201 177 188 181 177 170 132 132 151 148 107 163 182 185 171 170 167 163 163 167 154 138 48 349 348 355 9 356 355 358 2 6 13 17 20 17 13 18 16 14 9 17 21 12 357 345 342 353
166 192 182 192 175 189 203 174 188 179 159 144 121 126 139 112 153 210 213 184 177 174 172 170 168 167 167 171 46 4 8 10 4 342 352 358 2 6 8 8 9 14 16 14 5 6 10 3 1 4 3 343 331 316
192 235 202 208 206 222 239 225 167 140 171 161 156 135 136 153 214 208 175 176 178 175 170 169 173 180 183 170 87 6 6 7 4 354 7 9 3 5 5 10 10 7 4 3 2 357 359 1 353 345 347 335 336 298
239 221 189 180 208 221 267 207 169 180 190 162 142 161 171 185 196 166 175 177 175 171 167 165 168 180 181 179 193 1 1 10 6 358 291 347 357 1 6 9 10 10 7 1 358 360 2 358 355 352 344 337 332 268
228 185 190 243 222 216 224 218 219 175 143 163 115 120 127 116 157 166 163 167 172 165 162 169 173 182 187 190 204 333 15 30 34 43 33 16 8 6 7 5 4 5 8 10 5 357 356 352 352 349 349 337 272 277
234 191 201 234 216 213 233 214 169 151 139 138 125 115 105 117 148 157 162 168 168 168 173 179 181 189 193 197 192 53 32 35 36 34 29 21 12 5 1 360 2 3 4 5 5 3 358 355 348 353 356 346 304 250
223 201 215 243 271 215 213 169 144 132 121 100 118 135 124 126 144 160 170 172 174 178 180 180 184 192 201 192 195 42 37 31 29 25 21 14 6 3 2 1 2 3 3 3 4 4 4 3 2 0 356 1 0 343
211 222 199 276 240 158 139 141 119 91 100 98 98 134 131 116 116 166 182 183 185 186 192 197 192 187 182 171 190 219 14 20 16 12 10 7 5 2 359 358 359 1 4 6 5 7 8 9 8 6 1 2 0 352
207 227 218 181 140 185 174 122 93 95 101 104 122 134 97 107 127 164 175 177 190 199 190 186 186 184 170 165 170 37 11 3 357 357 360 1 360 358 356 356 359 1 2 5 7 9 13 16 16 16 14 11 9 13